STARLINK-33984, 63830

Orbit data source: Space-Track

STARLINK-33984, 63830 is a payload satellite owned by SpaceX/Seattle (US) in LEO that was launched on Sun, 04 May 2025 UTC via an FALCON 9 launch vehicle from the Air Force Eastern Test Range (AFETR). Payload-class satellites include a variety of spacecraft equipped with specific instruments for various scientific and technological missions. These include communications satellites like Starlink; space stations such as the ISS; scientific satellites like the Hubble; Earth observation satellites from companies like Planet Labs, Umbra, and HawkEye 360; GPS; miniature CubeSats for education and research; and military/defense satellites.

Loading next visibility...
Identifier
63830, 2025-092AC
Orbit
LEO
Last TLE update
10 hours ago
Origin
Manufacturer
SpaceX/Seattle
Mission
Operational Commercial Communications
Bus & Motor
STARLINK V2MO, Unknown motor
Mass
575 kg wet, ~530 kg dry
Launch date (UTC)
2025-05-04 (2 months ago)
Launch vehicle
FALCON 9
Launch site
Air Force Eastern Test Range (AFETR)
Object type
Payload
Rocket body
Debris
Shape & HBR
Box + 1 Pan, 29 m
Radar Cross Section
41.120 m², Large (>1 m²)

Expand to show TLE details & history

TLE from 10 hours ago
0 STARLINK-33984
1 63830U 25092AC  25189.19663443  .00023897  00000-0  87509-3 0  9990
2 63830  43.0009 113.2141 0002333 261.8421  98.2166 15.27579492 11214
Epoch: 2025-07-08T04:43Z
TLE epoch observation values (Epoch: 2025-07-08T04:43:09.214Z)
Latitude
-0.00003°
Longitude
116.03059°
Altitude
483.055 km
Speed
7.626 km/s
True Right ascension
07h 32m 51s
True Declination
0° 00' 00"
Sunlit
Object was in daylight at epoch
Visualization orbit readout
Latitude
-6.14695°
Longitude
-59.78479°
Altitude
483.372 km
Speed
7.625 km/s
Apparent Right ascension
17h 53m 48s
Apparent Declination
-26° 35' 52"
Sunlit
Object is in full shadow
Visualization observer readout
Local Sidereal Time
03:04:16
Azimuth
277.599° WNW
Elevation
-52.549°
Doppler factor
1
Orbital elements
Apogee altitude
486.597 km
Perigee altitude
483.394 km
Semi-major axis
6,863.133 km
Eccentricity
0.00023
Inclination
43.0009°
RAAN
113.2141°
Arg. of periapsis
261.8421°
True anomaly
Unknown
Mean anomaly
98.2166°
Eccentric anomaly
Unknown
Mean motion
3.81733 °/min
Orbital period
94.31 mins
BSTAR
0.00087509
Loading maneuver chart data...
Loading SW <> Apogee altitude chart data...
Loading historical data...
Loading historical data...
Loading historical data...
Loading historical data...
Loading historical data...
Loading historical data...
Loading historical data...

STARLINK-33984 Visibility forecast

Observer location: undefined°, undefined°

Span
Click to sort rows by Start time (UTC) header in descending order
Start Az.
Max El. time (UTC)
Max El. Az.
Max El.
End time (UTC)
End Az.
6 mins2025-07-08 22:11:28.948Z211.378° SW2025-07-08 22:14:28.948Z132.37° SE29.869°2025-07-08 22:17:28.948Z82.656° E
6 mins2025-07-08 23:50:28.948Z266.983° W2025-07-08 23:52:28.948Z306.419° NW41.458°2025-07-08 23:56:28.948Z70.653° E
6 mins2025-07-09 01:29:28.948Z291.698° WNW2025-07-09 01:32:28.948Z32.23° NE37.457°2025-07-09 01:35:28.948Z82.384° E
6 mins2025-07-09 03:08:28.948Z283.573° WNW2025-07-09 03:11:28.948Z159.837° S42.003°2025-07-09 03:14:28.948Z119.381° SE
|